[[{"header":{"parameterUnit":"m.s-1","parameterCategory":1,"la1":30.2991,"la2":30.254,"lo1":-89.0895,"lo2":-89.0444,"dy":0.0017,"dx":0.0017,"nx":28,"ny":28,"refTime":"2024-02-18T09:00:00:Z","depth":0,"parameterNumber":2,"parameterNumberName":"U-component_of_WINDS"},"data":[0,0,0,0,0,0,0,0,0,0,0,0,0,0,0,0,0,0,0,0,0,0,0,0,0,0,0,0,0,0,0,0,0,0,0,0,0,0,0,0,0,0,0,0,0,0,0,0,0,0,0,0,0,0,0,0,0,0,-1.3474,-1.3475,0,-1.3554,-1.3554,-1.3555,-1.3532,-1.353,-1.3529,-1.3527,-1.3611,-1.3615,-1.3618,0,0,0,0,0,0,0,0,0,0,0,0,0,-1.3302,-1.3305,-1.3474,-1.3475,-1.3476,-1.3553,-1.3555,-1.3556,-1.3532,-1.353,-1.3528,-1.3526,-1.361,-1.3614,-1.3619,0,0,0,0,0,0,0,0,0,0,0,0,0,-1.3379,-1.3306,-1.3474,-1.3473,-1.3474,-1.3553,-1.3555,-1.3556,-1.3533,-1.353,-1.3528,-1.3525,-1.3608,-1.3614,-1.3619,-1.3704,0,0,-1.3637,-1.3639,0,0,0,0,0,0,0,0,-1.3374,-1.3385,-1.3472,-1.3474,-1.3475,-1.353,-1.3525,-1.3606,-1.3533,-1.3511,-1.3527,-1.3524,-1.3586,-1.3594,-1.3614,-1.3708,-1.3711,-1.3637,-1.364,-1.3643,-1.3644,0,0,0,0,0,0,0,-1.3369,-1.3382,-1.3505,-1.3474,-1.3475,-1.347,-1.3478,-1.354,-1.3561,-1.3512,-1.3511,-1.3521,-1.3586,-1.3609,-1.3616,-1.3713,-1.3637,-1.3642,-1.3645,-1.3648,-1.3879,-1.3882,0,0,0,0,0,0,-1.3363,-1.3377,-1.3503,-1.3508,-1.3417,-1.3475,-1.3484,-1.3515,-1.3561,-1.3565,-1.3523,-1.3519,-1.36,-1.3609,-1.3619,-1.3721,-1.3643,-1.3648,-1.3651,-1.3876,-1.388,-1.3883,0,0,0,0,0,0,-1.3359,-1.3374,-1.35,-1.3442,-1.3458,-1.348,-1.3515,-1.3518,-1.354,-1.3568,-1.3572,-1.3541,-1.3599,-1.3611,-1.3683,-1.3723,-1.3651,-1.3656,-1.3873,-1.3877,-1.3881,-1.3926,0,0,0,0,0,0,-1.3354,-1.3373,-1.3406,-1.3443,-1.3461,-1.3562,-1.3518,-1.3521,-1.355,-1.3546,-1.3587,-1.3591,-1.3598,-1.3674,-1.3688,-1.373,-1.366,-1.387,-1.3875,-1.388,-1.3921,-1.3931,-1.394,0,0,0,0,0,-1.3348,-1.3416,-1.3407,-1.3423,-1.3502,-1.3565,-1.3575,-1.358,-1.3553,-1.3586,-1.3604,-1.359,-1.3716,-1.3682,-1.3697,-1.3741,-1.3867,-1.3873,-1.3879,-1.3917,-1.3929,-1.3939,0,0,0,0,0,0,-1.3383,-1.342,-1.3412,-1.3493,-1.3526,-1.3561,-1.3602,-1.3593,-1.3635,-1.363,-1.3634,-1.3644,-1.3718,-1.3736,-1.3697,-1.3825,-1.3788,-1.3797,-1.3811,-1.3823,-1.3832,-1.3827,-1.3665,0,0,0,0,0,-1.34,-1.3448,-1.3478,-1.3546,-1.3563,-1.358,-1.3607,-1.3608,-1.3643,-1.3657,-1.368,-1.3714,-1.3761,-1.3793,-1.3838,-1.3922,-1.3931,-1.396,-1.397,-1.3977,-1.3986,-1.4032,-1.4045,-1.3903,-1.3903,-1.3903,0,0,-1.3436,-1.3462,-1.3492,-1.3554,-1.358,-1.3629,-1.3592,-1.3646,-1.3683,-1.3665,-1.3735,-1.3752,-1.3791,-1.387,-1.3905,-1.3888,-1.4027,-1.3985,-1.3991,-1.3996,-1.404,-1.4053,-1.4065,-1.3907,-1.3906,-1.3906,0,0,-1.3528,-1.3552,-1.3612,-1.3637,-1.3676,-1.3686,-1.37,-1.3736,-1.3748,-1.3817,-1.3804,-1.3848,-1.3929,-1.3957,-1.3982,-1.4082,-1.4071,-1.4096,-1.4146,-1.4191,-1.4202,-1.4212,-1.4248,-1.4261,-1.4104,-1.4104,-1.4105,0,-1.3568,-1.3642,-1.3644,-1.3699,-1.3726,-1.3711,-1.3772,-1.3797,-1.3848,-1.3868,-1.3847,-1.3948,-1.3972,-1.4057,-1.4081,-1.4102,-1.4118,-1.4093,-1.42,-1.421,-1.4219,-1.4254,-1.4268,-1.4107,-1.4107,-1.4107,-1.4106,0,-1.3689,-1.3741,-1.3784,-1.3834,-1.3866,-1.3923,-1.3934,-1.3967,-1.3964,-1.3976,-1.4047,-1.4076,-1.4126,-1.4146,-1.4144,-1.423,-1.4218,-1.4198,-1.4161,-1.4236,-1.4268,-1.4282,-1.4111,-1.411,-1.411,-1.4109,0,0,-1.3808,-1.3855,-1.3872,-1.3894,-1.3934,-1.3974,-1.403,-1.4079,-1.4106,-1.4142,-1.419,-1.4258,-1.4239,-1.4268,-1.4269,-1.4308,-1.4385,-1.4283,-1.4284,-1.4302,-1.4482,-1.4498,-1.4513,-1.4377,-1.438,-1.4382,-1.4479,0,-1.3903,-1.4002,-1.4005,-1.4096,-1.4143,-1.4128,-1.4177,-1.4207,-1.422,-1.4262,-1.4276,-1.4324,-1.4296,-1.4313,-1.4351,-1.4368,-1.4422,-1.436,-1.4423,-1.4425,-1.4415,-1.453,-1.4547,-1.4638,-1.4492,-1.4494,-1.4495,0,-1.4028,-1.4067,-1.4162,-1.4195,-1.4215,-1.4259,-1.4303,-1.4343,-1.4377,-1.4383,-1.4414,-1.4408,-1.4466,-1.4425,-1.4505,-1.4463,-1.4488,-1.45,-1.4504,-1.4511,-1.4466,-1.4542,-1.4667,-1.4681,-1.4515,-1.4514,-1.4512,0,-1.4106,-1.4181,-1.4248,-1.4267,-1.4307,-1.4338,-1.4356,-1.4387,-1.4416,-1.4454,-1.4473,-1.4517,-1.4542,-1.4577,-1.4584,-1.4553,-1.4664,-1.4623,-1.4671,-1.4671,-1.4697,-1.4696,-1.4829,-1.4711,-1.471,-1.471,-1.471,0,-1.4213,-1.4273,-1.4283,-1.4325,-1.4391,-1.4392,-1.4457,-1.4473,-1.45,-1.4544,-1.4534,-1.4575,-1.4581,-1.4624,-1.463,-1.4695,-1.4706,-1.4713,-1.4714,-1.4715,-1.4715,-1.4733,-1.4728,-1.4714,-1.4713,-1.4712,-1.4712,0,-1.4312,-1.4322,-1.4394,-1.4424,-1.4434,-1.4481,-1.4507,-1.4547,-1.4557,-1.4613,-1.4626,-1.4643,-1.4693,-1.4702,-1.4762,-1.4765,-1.4844,-1.4838,-1.4832,-1.4832,-1.488,-1.4876,-1.5032,-1.5052,-1.4919,-1.492,-1.4921,0,-1.4381,-1.4426,-1.4461,-1.449,-1.4509,-1.4555,-1.4584,-1.4586,-1.4617,-1.4657,-1.4692,-1.474,-1.478,-1.486,-1.4878,-1.4923,-1.4919,-1.497,-1.4926,-1.4925,-1.4921,-1.4919,-1.4923,-1.498,-1.4981,-1.4982,-1.4983,0,-1.4503,-1.4504,-1.4546,-1.4589,-1.4623,-1.4658,-1.469,-1.4714,-1.4721,-1.4755,-1.4806,-1.4836,-1.4896,-1.4944,-1.4989,-1.5007,-1.4997,-1.4996,-1.501,-1.5012,-1.5008,-1.5012,-1.4857,-1.4993,-1.4992,-1.4992,-1.4991,-1.4991,-1.4589,-1.4629,-1.4659,-1.4706,-1.473,-1.476,-1.4798,-1.4813,-1.4855,-1.4903,-1.4902,-1.4957,-1.4988,-1.5047,-1.5068,-1.5112,-1.5095,-1.5115,-1.512,-1.5126,-1.513,-1.4999,-1.512,-1.5119,-1.5119,-1.5119,-1.5119,0,-1.4711,-1.473,-1.4772,-1.4817,-1.4853,-1.4838,-1.4873,-1.4905,-1.4953,-1.4983,-1.5021,-1.5079,-1.5125,-1.5145,-1.5191,-1.5222,-1.5218,-1.5234,-1.5233,-1.5237,-1.5142,-1.5126,-1.5236,-1.5236,-1.5236,-1.5236,-1.5236,-1.5236,-1.4779,-1.4845,-1.485,-1.4927,-1.4945,-1.4999,-1.502,-1.5047,-1.5071,-1.5135,-1.5174,-1.5186,-1.5212,-1.5259,-1.5301,-1.5306,-1.5323,-1.5342,-1.5344,-1.5256,-1.5244,-1.5233,-1.5218,-1.5345,-1.5345,-1.5436,-1.5437,-1.5438]},{"header":{"parameterUnit":"m.s-1","parameterCategory":1,"la1":30.2991,"la2":30.254,"lo1":-89.0895,"lo2":-89.0444,"dy":0.0017,"dx":0.0017,"nx":28,"ny":28,"refTime":"2024-02-18T09:00:00:Z","depth":0,"parameterNumber":3,"parameterNumberName":"V-component_of_WINDS"},"data":[0,0,0,0,0,0,0,0,0,0,0,0,0,0,0,0,0,0,0,0,0,0,0,0,0,0,0,0,0,0,0,0,0,0,0,0,0,0,0,0,0,0,0,0,0,0,0,0,0,0,0,0,0,0,0,0,0,0,-7.511,-7.5111,0,-7.5291,-7.5293,-7.5295,-7.5218,-7.5214,-7.5209,-7.5205,-7.5385,-7.5394,-7.5403,0,0,0,0,0,0,0,0,0,0,0,0,0,-7.4691,-7.4699,-7.5109,-7.5112,-7.5114,-7.529,-7.5293,-7.5295,-7.5219,-7.5213,-7.5208,-7.5203,-7.5382,-7.5393,-7.5403,0,0,0,0,0,0,0,0,0,0,0,0,0,-7.4872,-7.4701,-7.5109,-7.5097,-7.5098,-7.529,-7.5293,-7.5296,-7.522,-7.5213,-7.5207,-7.5201,-7.5379,-7.5392,-7.5405,-7.5617,0,0,-7.5445,-7.5451,0,0,0,0,0,0,0,0,-7.4862,-7.4888,-7.5097,-7.5098,-7.5099,-7.5225,-7.5211,-7.5404,-7.5222,-7.5173,-7.5205,-7.5198,-7.5337,-7.5353,-7.5401,-7.5626,-7.5634,-7.5447,-7.5455,-7.546,-7.5464,0,0,0,0,0,0,0,-7.485,-7.4879,-7.5181,-7.51,-7.5101,-7.5081,-7.5099,-7.5247,-7.5289,-7.5177,-7.5172,-7.5195,-7.5336,-7.5389,-7.5405,-7.5636,-7.5446,-7.5458,-7.5466,-7.5471,-7.6043,-7.605,0,0,0,0,0,0,-7.4838,-7.4869,-7.5175,-7.5186,-7.4962,-7.5094,-7.5114,-7.5191,-7.5288,-7.5296,-7.52,-7.5191,-7.5369,-7.539,-7.5411,-7.5666,-7.546,-7.5473,-7.548,-7.6036,-7.6045,-7.6053,0,0,0,0,0,0,-7.4829,-7.4866,-7.5168,-7.5027,-7.5064,-7.5108,-7.5195,-7.5198,-7.5251,-7.5305,-7.5312,-7.5247,-7.5365,-7.5392,-7.5567,-7.5671,-7.5479,-7.5491,-7.6028,-7.6039,-7.6049,-7.6179,0,0,0,0,0,0,-7.4817,-7.4863,-7.4946,-7.5029,-7.5071,-7.5323,-7.5201,-7.5207,-7.5275,-7.5264,-7.535,-7.5358,-7.5362,-7.5548,-7.558,-7.5686,-7.5501,-7.6018,-7.6033,-7.6045,-7.6165,-7.6193,-7.6216,0,0,0,0,0,-7.4803,-7.4974,-7.4951,-7.4988,-7.5176,-7.5329,-7.5353,-7.5356,-7.5283,-7.5366,-7.5401,-7.5355,-7.5655,-7.5566,-7.5602,-7.5714,-7.6012,-7.6029,-7.6044,-7.6154,-7.6187,-7.6216,0,0,0,0,0,0,-7.49,-7.4985,-7.496,-7.5163,-7.524,-7.5316,-7.5421,-7.5391,-7.5488,-7.5474,-7.547,-7.5491,-7.5671,-7.5709,-7.5609,-7.5924,-7.5822,-7.5846,-7.5893,-7.5925,-7.595,-7.5937,-7.5512,0,0,0,0,0,-7.4946,-7.5065,-7.5131,-7.5305,-7.5345,-7.5376,-7.5443,-7.5438,-7.5517,-7.5548,-7.5595,-7.5672,-7.5782,-7.5856,-7.5961,-7.617,-7.6187,-7.6264,-7.629,-7.631,-7.6331,-7.6444,-7.6479,-7.6106,-7.6106,-7.6106,0,0,-7.504,-7.5101,-7.5176,-7.5326,-7.5385,-7.5506,-7.5404,-7.5537,-7.5627,-7.5567,-7.5736,-7.5774,-7.5858,-7.6051,-7.6138,-7.6088,-7.6438,-7.6331,-7.6347,-7.6357,-7.6465,-7.65,-7.6531,-7.6117,-7.6115,-7.6113,0,0,-7.5275,-7.5334,-7.5485,-7.5546,-7.5637,-7.5657,-7.5693,-7.5774,-7.5797,-7.5967,-7.5924,-7.603,-7.6221,-7.6283,-7.634,-7.6598,-7.656,-7.6632,-7.6765,-7.6875,-7.6904,-7.693,-7.7022,-7.7055,-7.6652,-7.6653,-7.6653,0,-7.5381,-7.5565,-7.5565,-7.5703,-7.5769,-7.5723,-7.5875,-7.5933,-7.6053,-7.6099,-7.6042,-7.6281,-7.6335,-7.6541,-7.6605,-7.6652,-7.6692,-7.6622,-7.69,-7.6926,-7.6951,-7.7038,-7.7073,-7.6661,-7.666,-7.6659,-7.6658,0,-7.569,-7.5818,-7.5929,-7.6048,-7.6127,-7.627,-7.6291,-7.637,-7.6358,-7.6384,-7.6556,-7.6618,-7.6735,-7.6784,-7.6773,-7.6989,-7.6955,-7.69,-7.6797,-7.6995,-7.7077,-7.711,-7.6673,-7.667,-7.6667,-7.6665,0,0,-7.5992,-7.611,-7.6151,-7.6204,-7.6301,-7.6399,-7.6539,-7.6656,-7.6724,-7.6807,-7.6924,-7.7087,-7.7037,-7.7101,-7.7096,-7.7193,-7.7393,-7.7125,-7.7127,-7.7173,-7.7634,-7.7676,-7.7715,-7.7368,-7.7374,-7.7379,-7.7627,0,-7.6235,-7.6485,-7.6489,-7.6717,-7.6835,-7.6792,-7.6914,-7.6985,-7.7012,-7.7114,-7.7143,-7.7259,-7.7183,-7.7221,-7.7315,-7.7349,-7.7485,-7.7331,-7.7475,-7.7481,-7.7457,-7.7758,-7.7803,-7.8034,-7.7659,-7.7665,-7.7669,0,-7.6552,-7.6648,-7.6889,-7.6968,-7.7017,-7.7128,-7.7235,-7.7333,-7.7412,-7.7425,-7.7497,-7.7478,-7.7619,-7.7512,-7.7706,-7.76,-7.7659,-7.7685,-7.7694,-7.7708,-7.7587,-7.7781,-7.8108,-7.8143,-7.7719,-7.7715,-7.7712,0,-7.6748,-7.6937,-7.7106,-7.7153,-7.725,-7.7328,-7.7372,-7.7445,-7.7514,-7.7607,-7.7651,-7.7758,-7.7817,-7.7899,-7.7908,-7.7829,-7.8103,-7.7996,-7.8117,-7.8117,-7.8177,-7.8173,-7.8519,-7.8214,-7.8214,-7.8213,-7.8212,0,-7.7019,-7.7168,-7.7196,-7.73,-7.7465,-7.7467,-7.7629,-7.7666,-7.7731,-7.784,-7.7808,-7.791,-7.7916,-7.802,-7.8027,-7.8187,-7.8213,-7.8226,-7.8226,-7.823,-7.8228,-7.8269,-7.8253,-7.8222,-7.822,-7.8219,-7.8217,0,-7.7267,-7.7292,-7.7473,-7.755,-7.7573,-7.7691,-7.7756,-7.7854,-7.7877,-7.8015,-7.8047,-7.8084,-7.8205,-7.8222,-7.8363,-7.8368,-7.856,-7.8543,-7.8534,-7.8532,-7.8651,-7.864,-7.9035,-7.9087,-7.8748,-7.8752,-7.8754,0,-7.7439,-7.7553,-7.7643,-7.7714,-7.7763,-7.7878,-7.7949,-7.7955,-7.803,-7.8129,-7.8215,-7.8332,-7.8427,-7.8622,-7.866,-7.8767,-7.8753,-7.8884,-7.8769,-7.8768,-7.8755,-7.8749,-7.876,-7.8906,-7.891,-7.8913,-7.8916,0,-7.7741,-7.7748,-7.7853,-7.7963,-7.8049,-7.8135,-7.8216,-7.8276,-7.8291,-7.8377,-7.8502,-7.8575,-7.872,-7.8837,-7.8943,-7.8985,-7.8954,-7.8952,-7.8985,-7.899,-7.898,-7.8987,-7.8595,-7.8943,-7.894,-7.8938,-7.8937,-7.8935,-7.7956,-7.8056,-7.8135,-7.8253,-7.8314,-7.8391,-7.8487,-7.8523,-7.8628,-7.8748,-7.8744,-7.888,-7.8955,-7.9095,-7.9144,-7.9249,-7.9206,-7.9255,-7.9267,-7.9279,-7.9291,-7.8963,-7.9269,-7.9268,-7.9267,-7.9266,-7.9266,0,-7.8257,-7.8306,-7.8414,-7.853,-7.8622,-7.8586,-7.8673,-7.8752,-7.8874,-7.8947,-7.9042,-7.9184,-7.9297,-7.9344,-7.9455,-7.953,-7.9518,-7.9559,-7.9553,-7.9564,-7.9323,-7.9284,-7.9567,-7.9567,-7.9567,-7.9566,-7.9566,-7.9566,-7.8425,-7.8591,-7.8607,-7.8802,-7.8849,-7.8985,-7.9038,-7.9107,-7.9166,-7.9327,-7.9422,-7.9453,-7.9515,-7.963,-7.9731,-7.9742,-7.9784,-7.9832,-7.9836,-7.9611,-7.9581,-7.9552,-7.9514,-7.9841,-7.9841,-8.0067,-8.0069,-8.0071]}]]